[[{"header":{"parameterUnit":"m.s-1","parameterCategory":1,"la1":30.2991,"la2":30.254,"lo1":-89.0895,"lo2":-89.0444,"dy":0.0017,"dx":0.0017,"nx":28,"ny":28,"refTime":"2024-10-16T21:00:00:Z","depth":0,"parameterNumber":2,"parameterNumberName":"U-component_of_WINDS"},"data":[0,0,0,0,0,0,0,0,0,0,0,0,0,0,0,0,0,0,0,0,0,0,0,0,0,0,0,0,0,0,0,0,0,0,0,0,0,0,0,0,0,0,0,0,0,0,0,0,0,0,0,0,0,0,0,0,0,0,-4.8984,-4.8985,0,-4.9019,-4.9019,-4.902,-4.8851,-4.8846,-4.8841,-4.8837,-4.8873,-4.8879,-4.8884,0,0,0,0,0,0,0,0,0,0,0,0,0,-4.8772,-4.8777,-4.8984,-4.8985,-4.8985,-4.9019,-4.9019,-4.902,-4.8852,-4.8846,-4.884,-4.8835,-4.8871,-4.8878,-4.8885,0,0,0,0,0,0,0,0,0,0,0,0,0,-4.8841,-4.8778,-4.8984,-4.8905,-4.8899,-4.9019,-4.9019,-4.902,-4.8853,-4.8846,-4.8839,-4.8832,-4.8869,-4.8877,-4.8885,-4.9083,0,0,-4.8911,-4.8914,0,0,0,0,0,0,0,0,-4.8838,-4.8849,-4.8917,-4.8911,-4.8904,-4.8923,-4.8957,-4.9041,-4.8855,-4.8871,-4.8837,-4.8828,-4.8896,-4.8901,-4.8924,-4.9084,-4.9086,-4.8911,-4.8916,-4.892,-4.8922,0,0,0,0,0,0,0,-4.8833,-4.8847,-4.8998,-4.8918,-4.891,-4.8868,-4.887,-4.8973,-4.8924,-4.8869,-4.8857,-4.8863,-4.8891,-4.8916,-4.8924,-4.9087,-4.8911,-4.8919,-4.8924,-4.8927,-4.9407,-4.9415,0,0,0,0,0,0,-4.8839,-4.8844,-4.8997,-4.8999,-4.8852,-4.8878,-4.888,-4.8924,-4.8922,-4.8915,-4.8869,-4.8855,-4.8906,-4.8914,-4.8924,-4.9152,-4.892,-4.8928,-4.8932,-4.94,-4.9409,-4.9418,0,0,0,0,0,0,-4.8835,-4.8854,-4.8995,-4.8918,-4.8933,-4.8889,-4.8941,-4.8929,-4.8954,-4.8923,-4.8913,-4.8904,-4.89,-4.8913,-4.9044,-4.9151,-4.8931,-4.8939,-4.9391,-4.9403,-4.9413,-4.9612,0,0,0,0,0,0,-4.8829,-4.8853,-4.8928,-4.8921,-4.8938,-4.9115,-4.8947,-4.8935,-4.8969,-4.895,-4.8953,-4.8946,-4.8896,-4.9032,-4.9052,-4.9158,-4.8945,-4.9381,-4.9396,-4.941,-4.9595,-4.9629,-4.9657,0,0,0,0,0,-4.8822,-4.8984,-4.8933,-4.8952,-4.903,-4.9121,-4.9131,-4.9069,-4.8978,-4.9052,-4.9032,-4.8946,-4.9137,-4.9047,-4.9068,-4.9179,-4.9373,-4.9392,-4.9409,-4.9581,-4.9622,-4.9657,0,0,0,0,0,0,-4.9005,-4.8981,-4.8925,-4.9088,-4.9108,-4.9093,-4.9184,-4.9115,-4.9161,-4.9142,-4.9064,-4.9066,-4.921,-4.9208,-4.9108,-4.9368,-4.9239,-4.9262,-4.9364,-4.9402,-4.9433,-4.9428,-4.8952,0,0,0,0,0,-4.9064,-4.9141,-4.9116,-4.9262,-4.9275,-4.9229,-4.9266,-4.9217,-4.9234,-4.9242,-4.9231,-4.9251,-4.9315,-4.9359,-4.9416,-4.9595,-4.9592,-4.9681,-4.9713,-4.9738,-4.9757,-4.9849,-4.9887,-4.9475,-4.9475,-4.9475,0,0,-4.9187,-4.9184,-4.9237,-4.9299,-4.9308,-4.9388,-4.9237,-4.9329,-4.9386,-4.9256,-4.9377,-4.9371,-4.9388,-4.9544,-4.9611,-4.9546,-4.9871,-4.9761,-4.9781,-4.9786,-4.9871,-4.991,-4.9945,-4.9487,-4.9485,-4.9483,0,0,-4.9451,-4.9458,-4.9579,-4.9592,-4.9608,-4.9576,-4.9605,-4.9601,-4.9591,-4.9712,-4.9615,-4.9683,-4.9796,-4.9811,-4.9834,-5.0104,-5.0026,-5.0126,-5.0286,-5.0376,-5.0409,-5.0437,-5.053,-5.0565,-5.0146,-5.0146,-5.0146,0,-4.9602,-4.9718,-4.9651,-4.9748,-4.9777,-4.9663,-4.9784,-4.98,-4.9834,-4.9857,-4.9784,-4.9921,-4.9925,-5.008,-5.0146,-5.017,-5.0199,-5.0123,-5.041,-5.0437,-5.0463,-5.055,-5.0586,-5.0158,-5.0156,-5.0155,-5.0154,0,-4.9901,-4.9984,-5.008,-5.0115,-5.0155,-5.0265,-5.0212,-5.0262,-5.0209,-5.0185,-5.0309,-5.031,-5.0364,-5.0398,-5.0349,-5.0547,-5.0505,-5.0423,-5.0291,-5.0515,-5.0595,-5.0629,-5.0175,-5.017,-5.0167,-5.0164,0,0,-5.0279,-5.0275,-5.0311,-5.0324,-5.0334,-5.0396,-5.05,-5.0552,-5.0594,-5.0623,-5.0706,-5.0804,-5.0727,-5.0753,-5.0704,-5.0784,-5.0994,-5.069,-5.0689,-5.0744,-5.1208,-5.1268,-5.1308,-5.0943,-5.095,-5.0955,-5.1205,0,-5.0535,-5.0711,-5.0652,-5.0831,-5.0904,-5.0797,-5.0887,-5.0902,-5.0883,-5.0942,-5.092,-5.099,-5.0884,-5.0899,-5.0973,-5.0953,-5.1085,-5.0934,-5.1018,-5.1022,-5.1013,-5.1351,-5.1414,-5.1651,-5.1237,-5.1242,-5.1246,0,-5.0856,-5.0896,-5.1081,-5.1076,-5.1104,-5.1186,-5.1228,-5.1288,-5.1302,-5.1282,-5.1312,-5.1246,-5.1346,-5.1218,-5.1354,-5.1252,-5.1283,-5.1279,-5.1286,-5.1289,-5.1145,-5.1359,-5.1725,-5.1759,-5.1296,-5.1292,-5.1289,0,-5.1109,-5.1209,-5.1331,-5.1347,-5.1345,-5.1404,-5.1407,-5.1414,-5.1449,-5.1487,-5.1508,-5.1558,-5.1584,-5.1624,-5.1573,-5.1484,-5.1716,-5.1583,-5.17,-5.1701,-5.175,-5.1747,-5.2123,-5.1778,-5.1777,-5.1777,-5.1776,0,-5.1398,-5.1514,-5.1444,-5.152,-5.1647,-5.1579,-5.1707,-5.1697,-5.1705,-5.1775,-5.1688,-5.1756,-5.1686,-5.1748,-5.1709,-5.1826,-5.184,-5.1825,-5.1813,-5.1831,-5.1832,-5.1847,-5.1828,-5.1786,-5.1784,-5.1782,-5.1781,0,-5.17,-5.1658,-5.1784,-5.1772,-5.1771,-5.1865,-5.1854,-5.1923,-5.1898,-5.1988,-5.2006,-5.1966,-5.2034,-5.1988,-5.2057,-5.2031,-5.2183,-5.215,-5.2177,-5.2167,-5.2284,-5.2273,-5.268,-5.2729,-5.2356,-5.236,-5.2363,0,-5.1885,-5.1972,-5.1969,-5.2009,-5.2017,-5.2084,-5.2119,-5.2056,-5.2096,-5.2119,-5.2185,-5.2245,-5.2289,-5.2404,-5.238,-5.2432,-5.2397,-5.2537,-5.2404,-5.2419,-5.2394,-5.2388,-5.2395,-5.2562,-5.2566,-5.257,-5.2573,0,-5.2217,-5.2191,-5.2244,-5.2291,-5.2334,-5.2368,-5.2394,-5.2433,-5.2369,-5.2418,-5.2486,-5.2521,-5.2591,-5.2651,-5.2694,-5.2695,-5.2624,-5.2616,-5.2644,-5.2662,-5.2672,-5.2664,-5.2246,-5.2605,-5.2602,-5.26,-5.2598,-5.2597,-5.2463,-5.2534,-5.2542,-5.2604,-5.2617,-5.2643,-5.2706,-5.2689,-5.2744,-5.2795,-5.2755,-5.2836,-5.2848,-5.2897,-5.2908,-5.297,-5.2913,-5.2956,-5.2966,-5.2976,-5.2991,-5.2666,-5.2978,-5.2977,-5.2976,-5.2975,-5.2975,0,-5.2786,-5.2787,-5.2844,-5.2883,-5.2931,-5.2861,-5.2886,-5.293,-5.3002,-5.3019,-5.3065,-5.3142,-5.32,-5.3182,-5.3234,-5.3287,-5.3255,-5.3302,-5.3295,-5.3296,-5.3041,-5.3009,-5.3327,-5.3327,-5.3327,-5.3326,-5.3326,-5.3326,-5.296,-5.3075,-5.3052,-5.3173,-5.3172,-5.3249,-5.3269,-5.3293,-5.3305,-5.3396,-5.3443,-5.3431,-5.3433,-5.3484,-5.3534,-5.3527,-5.3549,-5.3607,-5.3588,-5.335,-5.3315,-5.3281,-5.325,-5.3614,-5.3614,-5.3837,-5.3839,-5.3841]},{"header":{"parameterUnit":"m.s-1","parameterCategory":1,"la1":30.2991,"la2":30.254,"lo1":-89.0895,"lo2":-89.0444,"dy":0.0017,"dx":0.0017,"nx":28,"ny":28,"refTime":"2024-10-16T21:00:00:Z","depth":0,"parameterNumber":3,"parameterNumberName":"V-component_of_WINDS"},"data":[0,0,0,0,0,0,0,0,0,0,0,0,0,0,0,0,0,0,0,0,0,0,0,0,0,0,0,0,0,0,0,0,0,0,0,0,0,0,0,0,0,0,0,0,0,0,0,0,0,0,0,0,0,0,0,0,0,0,-1.9365,-1.9365,0,-1.9385,-1.9386,-1.9386,-1.9393,-1.9393,-1.9393,-1.9393,-1.9412,-1.9412,-1.9413,0,0,0,0,0,0,0,0,0,0,0,0,0,-1.9329,-1.933,-1.9365,-1.9365,-1.9366,-1.9385,-1.9386,-1.9386,-1.9393,-1.9393,-1.9393,-1.9393,-1.9412,-1.9412,-1.9413,0,0,0,0,0,0,0,0,0,0,0,0,0,-1.9347,-1.933,-1.9365,-1.9372,-1.9373,-1.9385,-1.9386,-1.9386,-1.9393,-1.9393,-1.9393,-1.9393,-1.9411,-1.9412,-1.9413,-1.942,0,0,-1.9416,-1.9416,0,0,0,0,0,0,0,0,-1.9346,-1.9348,-1.9371,-1.9371,-1.9372,-1.9387,-1.938,-1.9397,-1.9393,-1.9385,-1.9393,-1.9393,-1.9403,-1.9405,-1.9409,-1.9421,-1.9422,-1.9416,-1.9416,-1.9417,-1.9417,0,0,0,0,0,0,0,-1.9345,-1.9347,-1.9373,-1.9371,-1.9372,-1.9373,-1.9375,-1.9383,-1.9395,-1.9386,-1.9387,-1.9389,-1.9404,-1.9408,-1.9409,-1.9422,-1.9416,-1.9416,-1.9417,-1.9417,-1.9438,-1.9439,0,0,0,0,0,0,-1.9343,-1.9346,-1.9373,-1.9374,-1.9359,-1.9373,-1.9376,-1.9382,-1.9395,-1.9396,-1.9389,-1.9389,-1.9407,-1.9408,-1.941,-1.9418,-1.9417,-1.9417,-1.9418,-1.9438,-1.9438,-1.9439,0,0,0,0,0,0,-1.9342,-1.9345,-1.9372,-1.936,-1.9364,-1.9374,-1.9381,-1.9383,-1.9387,-1.9397,-1.9399,-1.9392,-1.9407,-1.9409,-1.9417,-1.9418,-1.9418,-1.9418,-1.9438,-1.9438,-1.9439,-1.9434,0,0,0,0,0,0,-1.9341,-1.9345,-1.9349,-1.936,-1.9364,-1.938,-1.9381,-1.9383,-1.9389,-1.9389,-1.94,-1.9401,-1.9407,-1.9416,-1.9418,-1.942,-1.9419,-1.9438,-1.9438,-1.9438,-1.9434,-1.9434,-1.9434,0,0,0,0,0,-1.934,-1.9347,-1.9349,-1.9352,-1.9369,-1.938,-1.9382,-1.9389,-1.9389,-1.9392,-1.9398,-1.9401,-1.9418,-1.9417,-1.9419,-1.9421,-1.9438,-1.9438,-1.9438,-1.9434,-1.9434,-1.9434,0,0,0,0,0,0,-1.9335,-1.9348,-1.9351,-1.9362,-1.937,-1.9381,-1.9385,-1.9389,-1.9396,-1.9396,-1.9403,-1.9406,-1.9413,-1.9418,-1.9416,-1.9427,-1.9428,-1.9429,-1.9424,-1.9424,-1.9424,-1.9422,-1.942,0,0,0,0,0,-1.9335,-1.9343,-1.9354,-1.9363,-1.9367,-1.9375,-1.938,-1.9384,-1.9392,-1.9395,-1.9402,-1.9409,-1.9416,-1.942,-1.9427,-1.9435,-1.9436,-1.9437,-1.9437,-1.9437,-1.9437,-1.9439,-1.9439,-1.9439,-1.9439,-1.9439,0,0,-1.9336,-1.9344,-1.9349,-1.9362,-1.9369,-1.9375,-1.9378,-1.9386,-1.9391,-1.9396,-1.9405,-1.9409,-1.9417,-1.9425,-1.9429,-1.9429,-1.9437,-1.9437,-1.9437,-1.9437,-1.9439,-1.9439,-1.9439,-1.9439,-1.9439,-1.9439,0,0,-1.934,-1.9348,-1.9355,-1.9361,-1.9371,-1.9376,-1.9378,-1.9388,-1.9392,-1.94,-1.9404,-1.9409,-1.9421,-1.9426,-1.943,-1.9433,-1.9436,-1.9435,-1.9435,-1.9437,-1.9437,-1.9437,-1.9437,-1.9437,-1.9436,-1.9436,-1.9436,0,-1.934,-1.9352,-1.9359,-1.9366,-1.937,-1.9376,-1.9382,-1.9387,-1.9398,-1.9401,-1.9402,-1.9415,-1.9421,-1.9429,-1.943,-1.9433,-1.9434,-1.9434,-1.9436,-1.9437,-1.9437,-1.9437,-1.9437,-1.9436,-1.9436,-1.9436,-1.9436,0,-1.9349,-1.9357,-1.9362,-1.9372,-1.9377,-1.9384,-1.9391,-1.9395,-1.9398,-1.9403,-1.941,-1.9417,-1.9424,-1.9426,-1.943,-1.9434,-1.9434,-1.9435,-1.9436,-1.9436,-1.9436,-1.9437,-1.9435,-1.9435,-1.9435,-1.9435,0,0,-1.9353,-1.9366,-1.9367,-1.9371,-1.9381,-1.9386,-1.9392,-1.9399,-1.9402,-1.9409,-1.9413,-1.9422,-1.9423,-1.9427,-1.9431,-1.9433,-1.9433,-1.9434,-1.9434,-1.9433,-1.9437,-1.9435,-1.9435,-1.9435,-1.9435,-1.9435,-1.9436,0,-1.9358,-1.937,-1.9375,-1.9384,-1.939,-1.9394,-1.9398,-1.9404,-1.9408,-1.9413,-1.9417,-1.9422,-1.9424,-1.9426,-1.9429,-1.9433,-1.9434,-1.9433,-1.9438,-1.9438,-1.9435,-1.9435,-1.9434,-1.9434,-1.9436,-1.9436,-1.9436,0,-1.9366,-1.9372,-1.9382,-1.9389,-1.9391,-1.9396,-1.9402,-1.9407,-1.9412,-1.9415,-1.9419,-1.9422,-1.9427,-1.9427,-1.9433,-1.9432,-1.9434,-1.9436,-1.9436,-1.9436,-1.9437,-1.9435,-1.9434,-1.9434,-1.9436,-1.9436,-1.9436,0,-1.9366,-1.9377,-1.9383,-1.9387,-1.9395,-1.9398,-1.9401,-1.9407,-1.941,-1.9415,-1.9417,-1.9422,-1.9425,-1.9429,-1.9432,-1.9433,-1.9437,-1.9438,-1.9438,-1.9438,-1.9439,-1.9439,-1.9438,-1.9441,-1.9441,-1.9441,-1.9441,0,-1.9371,-1.9376,-1.9383,-1.9387,-1.9392,-1.9397,-1.9402,-1.9406,-1.941,-1.9414,-1.9417,-1.942,-1.9426,-1.9429,-1.9432,-1.9435,-1.9437,-1.9438,-1.9438,-1.9437,-1.9437,-1.9439,-1.9438,-1.9441,-1.9441,-1.9441,-1.9441,0,-1.9372,-1.9377,-1.9384,-1.9391,-1.9393,-1.9396,-1.9402,-1.9405,-1.9408,-1.9413,-1.9414,-1.9419,-1.9423,-1.9427,-1.9433,-1.9434,-1.9437,-1.9438,-1.9435,-1.9436,-1.9435,-1.9435,-1.9435,-1.9435,-1.9438,-1.9438,-1.9438,0,-1.9375,-1.9379,-1.9386,-1.9388,-1.9392,-1.9396,-1.9399,-1.9404,-1.9407,-1.9412,-1.9414,-1.9418,-1.9422,-1.9428,-1.9431,-1.9435,-1.9436,-1.9435,-1.9436,-1.9434,-1.9435,-1.9434,-1.9434,-1.9435,-1.9435,-1.9435,-1.9435,0,-1.9378,-1.938,-1.9385,-1.939,-1.9393,-1.9397,-1.9401,-1.9403,-1.9408,-1.9411,-1.9415,-1.9417,-1.9422,-1.9426,-1.9429,-1.9432,-1.9434,-1.9435,-1.9435,-1.9433,-1.9431,-1.9431,-1.9434,-1.9435,-1.9435,-1.9435,-1.9435,-1.9435,-1.938,-1.9382,-1.9387,-1.9392,-1.9395,-1.9398,-1.9401,-1.9404,-1.9408,-1.9412,-1.9414,-1.9418,-1.9421,-1.9426,-1.9429,-1.9431,-1.9431,-1.9432,-1.9432,-1.9431,-1.9431,-1.9431,-1.9431,-1.9431,-1.9431,-1.9431,-1.9431,0,-1.9382,-1.9385,-1.9389,-1.9394,-1.9397,-1.9399,-1.9403,-1.9405,-1.9408,-1.9411,-1.9414,-1.9418,-1.9421,-1.9424,-1.9427,-1.9428,-1.9428,-1.9428,-1.9428,-1.9428,-1.943,-1.943,-1.9427,-1.9427,-1.9427,-1.9427,-1.9427,-1.9427,-1.9384,-1.9388,-1.939,-1.9395,-1.9398,-1.9402,-1.9404,-1.9406,-1.9408,-1.9412,-1.9415,-1.9417,-1.9419,-1.9422,-1.9424,-1.9425,-1.9425,-1.9425,-1.9426,-1.9428,-1.9428,-1.9428,-1.9428,-1.9425,-1.9425,-1.9423,-1.9423,-1.9423]}]]